Location: Madden
(51.3728°N, 114.3297°W)
Time: 00:18:31
(UTC+00:00)

SEEDS - Pass Details

Date: 21 April 2025
Orbit: 510 x 513 km, 97.7° (Epoch: 16 May)

Event Time Altitude Azimuth Distance (km) Brightness Sun altitude
Rises 11:41:15 0° 19° (NNE) 2,650 ? -7.5°
Reaches altitude 10° 11:43:27 10° 27° (NNE) 1,757 ? -7.2°
Maximum altitude 11:47:03 40° 98° (E) 774 ? -6.7°
Drops below altitude 10° 11:50:36 10° 170° (S) 1,742 ? -6.2°
Sets 11:52:47 0° 177° (S) 2,624 ? -5.9°
